[[{"header":{"parameterUnit":"m.s-1","parameterCategory":1,"la1":30.2991,"la2":30.254,"lo1":-89.0895,"lo2":-89.0444,"dy":0.0017,"dx":0.0017,"nx":28,"ny":28,"refTime":"2024-03-31T03:00:00:Z","depth":0,"parameterNumber":2,"parameterNumberName":"U-component_of_WINDS"},"data":[0,0,0,0,0,0,0,0,0,0,0,0,0,0,0,0,0,0,0,0,0,0,0,0,0,0,0,0,0,0,0,0,0,0,0,0,0,0,0,0,0,0,0,0,0,0,0,0,0,0,0,0,0,0,0,0,0,0,-3.3021,-3.3022,0,-3.3132,-3.3134,-3.3135,-3.3151,-3.315,-3.3149,-3.3148,-3.3261,-3.3265,-3.3269,0,0,0,0,0,0,0,0,0,0,0,0,0,-3.2822,-3.2826,-3.3021,-3.3022,-3.3024,-3.3132,-3.3134,-3.3135,-3.3151,-3.315,-3.3149,-3.3148,-3.326,-3.3265,-3.3269,0,0,0,0,0,0,0,0,0,0,0,0,0,-3.2919,-3.2827,-3.3021,-3.3045,-3.3048,-3.3132,-3.3134,-3.3136,-3.3152,-3.315,-3.3149,-3.3147,-3.3258,-3.3264,-3.327,-3.3337,0,0,-3.3288,-3.3291,0,0,0,0,0,0,0,0,-3.2913,-3.2926,-3.304,-3.3043,-3.3047,-3.3126,-3.3105,-3.3203,-3.3152,-3.3112,-3.3148,-3.3146,-3.3218,-3.3227,-3.3251,-3.3342,-3.3347,-3.3289,-3.3292,-3.3295,-3.3296,0,0,0,0,0,0,0,-3.2906,-3.2921,-3.3065,-3.3042,-3.3046,-3.305,-3.3062,-3.3124,-3.3172,-3.3116,-3.3117,-3.313,-3.3219,-3.3245,-3.3254,-3.3349,-3.3288,-3.3294,-3.3297,-3.33,-3.35,-3.3502,0,0,0,0,0,0,-3.2895,-3.2915,-3.3062,-3.3068,-3.2975,-3.3055,-3.3068,-3.3103,-3.3171,-3.3181,-3.3131,-3.313,-3.3236,-3.3247,-3.3258,-3.334,-3.3295,-3.33,-3.3304,-3.3499,-3.3501,-3.3503,0,0,0,0,0,0,-3.2891,-3.2908,-3.3057,-3.2992,-3.3012,-3.306,-3.3098,-3.3106,-3.3131,-3.3183,-3.3192,-3.3149,-3.3235,-3.3249,-3.3317,-3.3344,-3.3303,-3.3308,-3.3497,-3.3499,-3.3502,-3.3505,0,0,0,0,0,0,-3.2885,-3.2907,-3.2933,-3.2993,-3.3015,-3.3115,-3.31,-3.3109,-3.3142,-3.3142,-3.3202,-3.3211,-3.3235,-3.3308,-3.3323,-3.3351,-3.3313,-3.3494,-3.3498,-3.3501,-3.3503,-3.3507,-3.3512,0,0,0,0,0,-3.2878,-3.2929,-3.2934,-3.2951,-3.3049,-3.3116,-3.3129,-3.3156,-3.3144,-3.317,-3.3204,-3.3209,-3.3339,-3.3315,-3.3332,-3.3362,-3.3493,-3.3497,-3.3501,-3.3501,-3.3506,-3.3511,0,0,0,0,0,0,-3.287,-3.2937,-3.2943,-3.3015,-3.306,-3.3119,-3.3153,-3.3161,-3.321,-3.3208,-3.324,-3.3253,-3.3319,-3.3348,-3.332,-3.3431,-3.3415,-3.3422,-3.3409,-3.3415,-3.3419,-3.341,-3.3318,0,0,0,0,0,-3.2877,-3.2926,-3.2982,-3.304,-3.3063,-3.3104,-3.3134,-3.3152,-3.3199,-3.3218,-3.3256,-3.3302,-3.3353,-3.3386,-3.3436,-3.3508,-3.3521,-3.3537,-3.3542,-3.3545,-3.355,-3.359,-3.3597,-3.3516,-3.3516,-3.3516,0,0,-3.2891,-3.2934,-3.2963,-3.304,-3.3076,-3.3127,-3.312,-3.3173,-3.321,-3.3226,-3.3292,-3.3322,-3.3375,-3.3445,-3.3477,-3.3471,-3.3576,-3.355,-3.3552,-3.3556,-3.3595,-3.3602,-3.3609,-3.3519,-3.3518,-3.3518,0,0,-3.2941,-3.2979,-3.3031,-3.3069,-3.3124,-3.3152,-3.3164,-3.3222,-3.3243,-3.331,-3.3322,-3.3368,-3.3455,-3.3492,-3.3523,-3.3589,-3.3595,-3.3604,-3.3627,-3.3665,-3.3671,-3.3677,-3.3699,-3.3707,-3.361,-3.361,-3.361,0,-3.2951,-3.3028,-3.3057,-3.311,-3.3143,-3.3161,-3.3213,-3.3248,-3.3317,-3.3339,-3.3331,-3.3442,-3.3479,-3.3557,-3.3573,-3.3598,-3.3613,-3.3596,-3.3668,-3.3674,-3.368,-3.3701,-3.371,-3.3611,-3.3611,-3.3611,-3.3611,0,-3.3037,-3.309,-3.3125,-3.3191,-3.3229,-3.3282,-3.3319,-3.3353,-3.3368,-3.3396,-3.3464,-3.3509,-3.3568,-3.3589,-3.3604,-3.3669,-3.3663,-3.3661,-3.3646,-3.3688,-3.3708,-3.3717,-3.3612,-3.3612,-3.3611,-3.3611,0,0,-3.3084,-3.3166,-3.3179,-3.3209,-3.3272,-3.3313,-3.3367,-3.3426,-3.3454,-3.3502,-3.3547,-3.3621,-3.362,-3.3654,-3.3674,-3.3707,-3.3755,-3.3701,-3.3703,-3.3708,-3.3829,-3.3829,-3.3838,-3.3761,-3.3762,-3.3764,-3.3824,0,-3.314,-3.3236,-3.3265,-3.3345,-3.3393,-3.3411,-3.3458,-3.3502,-3.353,-3.3575,-3.3607,-3.3658,-3.3653,-3.3674,-3.3708,-3.3742,-3.3779,-3.3738,-3.3802,-3.3804,-3.3786,-3.3849,-3.3849,-3.3904,-3.3833,-3.3834,-3.3835,0,-3.3219,-3.3268,-3.3353,-3.341,-3.3432,-3.3473,-3.3529,-3.3572,-3.3622,-3.3641,-3.368,-3.3696,-3.3752,-3.3735,-3.3813,-3.3784,-3.3812,-3.3833,-3.3836,-3.3841,-3.382,-3.3854,-3.3922,-3.3929,-3.3848,-3.3847,-3.3846,0,-3.3243,-3.333,-3.3392,-3.3418,-3.3486,-3.3515,-3.3545,-3.3593,-3.3627,-3.3676,-3.3698,-3.3753,-3.3782,-3.3824,-3.3855,-3.384,-3.393,-3.3916,-3.3946,-3.3945,-3.3962,-3.396,-3.4033,-3.3983,-3.3983,-3.3983,-3.3983,0,-3.3302,-3.3353,-3.3404,-3.3441,-3.3499,-3.3532,-3.3588,-3.3619,-3.3662,-3.3706,-3.3726,-3.3767,-3.3806,-3.3852,-3.3877,-3.3937,-3.3951,-3.3966,-3.3972,-3.3963,-3.3961,-3.398,-3.3977,-3.3985,-3.3985,-3.3984,-3.3984,0,-3.3337,-3.3373,-3.3442,-3.3501,-3.3518,-3.3557,-3.3608,-3.3646,-3.3675,-3.3731,-3.3746,-3.3792,-3.3847,-3.3883,-3.3953,-3.397,-3.4035,-3.404,-3.4018,-3.402,-3.4047,-3.4044,-3.4134,-3.4147,-3.409,-3.409,-3.4091,0,-3.3371,-3.3411,-3.3475,-3.3506,-3.3536,-3.3586,-3.362,-3.3654,-3.3689,-3.3749,-3.3779,-3.3836,-3.3883,-3.3971,-3.401,-3.4064,-3.407,-3.4098,-3.4078,-3.4068,-3.4069,-3.4065,-3.4069,-3.41,-3.4101,-3.4101,-3.4102,0,-3.3428,-3.3444,-3.3493,-3.3548,-3.3588,-3.3633,-3.3678,-3.3702,-3.3744,-3.3782,-3.3839,-3.3875,-3.3948,-3.4003,-3.4061,-3.4092,-3.4104,-3.4108,-3.4118,-3.4108,-3.4093,-3.41,-3.4024,-3.4105,-3.4105,-3.4105,-3.4104,-3.4104,-3.3463,-3.3499,-3.3549,-3.3602,-3.364,-3.3681,-3.3719,-3.3754,-3.3802,-3.3863,-3.3881,-3.394,-3.399,-3.4069,-3.4101,-3.4147,-3.4144,-3.4158,-3.4161,-3.4163,-3.4163,-3.4087,-3.4158,-3.4158,-3.4158,-3.4158,-3.4158,0,-3.3519,-3.3553,-3.3601,-3.3664,-3.3705,-3.3714,-3.3764,-3.3798,-3.385,-3.3896,-3.3942,-3.4007,-3.4062,-3.4106,-3.4162,-3.4191,-3.4198,-3.4204,-3.4201,-3.4208,-3.4164,-3.4149,-3.4198,-3.4198,-3.4198,-3.4198,-3.4198,-3.4198,-3.3553,-3.3614,-3.3636,-3.3715,-3.3749,-3.3807,-3.3834,-3.3873,-3.3909,-3.3981,-3.4027,-3.4055,-3.4101,-3.416,-3.421,-3.4222,-3.4241,-3.4246,-3.4259,-3.4216,-3.4211,-3.4207,-3.4193,-3.4251,-3.4251,-3.4299,-3.43,-3.43]},{"header":{"parameterUnit":"m.s-1","parameterCategory":1,"la1":30.2991,"la2":30.254,"lo1":-89.0895,"lo2":-89.0444,"dy":0.0017,"dx":0.0017,"nx":28,"ny":28,"refTime":"2024-03-31T03:00:00:Z","depth":0,"parameterNumber":3,"parameterNumberName":"V-component_of_WINDS"},"data":[0,0,0,0,0,0,0,0,0,0,0,0,0,0,0,0,0,0,0,0,0,0,0,0,0,0,0,0,0,0,0,0,0,0,0,0,0,0,0,0,0,0,0,0,0,0,0,0,0,0,0,0,0,0,0,0,0,0,3.9772,3.9773,0,3.9813,3.9813,3.9813,3.9811,3.9811,3.981,3.981,3.9846,3.9848,3.9849,0,0,0,0,0,0,0,0,0,0,0,0,0,3.9689,3.969,3.9772,3.9773,3.9773,3.9813,3.9813,3.9814,3.9811,3.9811,3.981,3.9809,3.9846,3.9848,3.985,0,0,0,0,0,0,0,0,0,0,0,0,0,3.9727,3.9691,3.9772,3.9777,3.9778,3.9812,3.9813,3.9814,3.9811,3.9811,3.981,3.9809,3.9845,3.9848,3.985,3.9881,0,0,3.9857,3.9858,0,0,0,0,0,0,0,0,3.9725,3.973,3.9776,3.9777,3.9778,3.9806,3.9797,3.9836,3.9812,3.9798,3.981,3.9809,3.9833,3.9837,3.9846,3.9883,3.9884,3.9857,3.9858,3.9859,3.986,0,0,0,0,0,0,0,3.9722,3.9728,3.9788,3.9776,3.9778,3.9776,3.978,3.9805,3.982,3.98,3.98,3.9805,3.9834,3.9844,3.9847,3.9885,3.9857,3.9859,3.986,3.9861,3.995,3.9951,0,0,0,0,0,0,3.9719,3.9726,3.9787,3.9789,3.9749,3.9778,3.9783,3.9798,3.982,3.9822,3.9805,3.9804,3.984,3.9844,3.9848,3.9887,3.9859,3.9861,3.9863,3.9949,3.9951,3.9952,0,0,0,0,0,0,3.9717,3.9724,3.9785,3.9758,3.9765,3.978,3.9797,3.9799,3.9809,3.9824,3.9827,3.9813,3.984,3.9845,3.9873,3.9889,3.9862,3.9864,3.9948,3.995,3.9951,3.9966,0,0,0,0,0,0,3.9715,3.9724,3.9737,3.9758,3.9767,3.9811,3.9798,3.98,3.9814,3.9813,3.9832,3.9834,3.9839,3.987,3.9876,3.9891,3.9866,3.9947,3.9949,3.9951,3.9964,3.9967,3.997,0,0,0,0,0,3.9712,3.9738,3.9737,3.9745,3.9783,3.9812,3.9817,3.9823,3.9815,3.9827,3.9837,3.9834,3.9886,3.9873,3.9879,3.9896,3.9946,3.9948,3.9951,3.9962,3.9967,3.997,0,0,0,0,0,0,3.9715,3.974,3.974,3.9774,3.9791,3.9811,3.9828,3.9827,3.9846,3.9844,3.985,3.9854,3.9884,3.9892,3.9877,3.9928,3.9915,3.9918,3.9921,3.9926,3.9929,3.9927,3.9868,0,0,0,0,0,3.9721,3.9743,3.9763,3.9791,3.98,3.9812,3.9825,3.9829,3.9846,3.9853,3.9864,3.988,3.99,3.9913,3.9932,3.9965,3.9969,3.9979,3.9982,3.9985,3.9988,4.0008,4.0013,3.9959,3.9959,3.9959,0,0,3.9731,3.9747,3.9761,3.9792,3.9806,3.9828,3.9818,3.9842,3.9858,3.9856,3.9885,3.9894,3.9911,3.9943,3.9957,3.9951,4.0004,3.9988,3.999,3.9992,4.001,4.0015,4.002,3.9961,3.996,3.996,0,0,3.9761,3.9776,3.9802,3.9816,3.9838,3.9846,3.9852,3.9873,3.988,3.9909,3.9908,3.9926,3.996,3.9974,3.9985,4.0022,4.0019,4.0027,4.0045,4.0064,4.0068,4.0072,4.0086,4.0091,4.003,4.003,4.003,0,3.9771,3.9806,3.9814,3.9839,3.9853,3.9854,3.988,3.9892,3.9918,3.9927,3.992,3.9964,3.9976,4.0011,4.002,4.0029,4.0036,4.0026,4.0067,4.0071,4.0074,4.0088,4.0093,4.0031,4.0031,4.0031,4.0031,0,3.9818,3.9842,3.986,3.9888,3.9904,3.9929,3.994,3.9954,3.9957,3.9966,3.9995,4.001,4.0033,4.0041,4.0042,4.0076,4.0072,4.0066,4.0053,4.008,4.0094,4.0099,4.0033,4.0032,4.0032,4.0032,0,0,3.9852,3.9885,3.9892,3.9905,3.9929,3.9948,3.9972,3.9997,4.001,4.0027,4.0049,4.0078,4.0073,4.0085,4.0088,4.0105,4.0135,4.0096,4.0097,4.0104,4.0174,4.018,4.0186,4.0133,4.0134,4.0135,4.0173,0,3.9887,3.9934,3.9942,3.9982,4.0005,4.0006,4.0027,4.0044,4.0053,4.0073,4.0081,4.0103,4.0094,4.0102,4.0118,4.0128,4.0149,4.0125,4.0153,4.0153,4.015,4.0193,4.0199,4.0235,4.0178,4.0179,4.018,0,3.9933,3.9955,3.9999,4.0021,4.0031,4.0051,4.0074,4.0093,4.0112,4.0117,4.0132,4.0133,4.0159,4.0144,4.0179,4.0162,4.0174,4.018,4.0182,4.0186,4.017,4.02,4.0247,4.0253,4.0188,4.0187,4.0187,0,3.9957,3.9996,4.0028,4.0039,4.0065,4.0079,4.0091,4.0109,4.0123,4.0143,4.0152,4.0174,4.0186,4.0202,4.0209,4.0197,4.0244,4.0229,4.0249,4.0249,4.026,4.0259,4.0311,4.0265,4.0264,4.0264,4.0264,0,3.9995,4.0022,4.0039,4.0059,4.0089,4.0097,4.0126,4.0137,4.0153,4.0174,4.0174,4.0193,4.0201,4.0221,4.0226,4.0255,4.026,4.0264,4.0266,4.0266,4.0265,4.0274,4.0273,4.0266,4.0265,4.0265,4.0265,0,4.0027,4.0039,4.0074,4.0097,4.0103,4.0125,4.0144,4.0162,4.0171,4.0198,4.0204,4.0217,4.0242,4.025,4.0278,4.0281,4.0316,4.0314,4.031,4.0311,4.0331,4.033,4.0391,4.04,4.0347,4.0347,4.0347,0,4.0052,4.0073,4.0099,4.0114,4.0127,4.0151,4.0166,4.0175,4.019,4.0214,4.023,4.0254,4.0274,4.0312,4.0323,4.0345,4.0345,4.0365,4.0348,4.0348,4.0347,4.0347,4.0349,4.0369,4.0369,4.037,4.037,0,4.0095,4.0101,4.0124,4.015,4.0169,4.0189,4.0208,4.022,4.0231,4.0248,4.0274,4.029,4.032,4.0344,4.0367,4.0377,4.0376,4.0375,4.0381,4.0382,4.038,4.0383,4.0321,4.0374,4.0374,4.0373,4.0373,4.0373,4.0125,4.0145,4.0167,4.0193,4.0209,4.0227,4.0247,4.0259,4.0281,4.0308,4.0311,4.0338,4.0357,4.0387,4.0398,4.042,4.0414,4.0422,4.0425,4.0427,4.043,4.0375,4.0423,4.0423,4.0423,4.0423,4.0423,0,4.017,4.0185,4.0209,4.0238,4.0258,4.0256,4.0278,4.0295,4.032,4.0338,4.0358,4.0388,4.0412,4.0425,4.0449,4.0463,4.0463,4.0469,4.0469,4.0471,4.0432,4.0426,4.0469,4.0469,4.0469,4.0469,4.0469,4.0469,4.0197,4.023,4.0238,4.028,4.0293,4.0323,4.0335,4.0352,4.0367,4.0401,4.0421,4.043,4.0447,4.0471,4.0493,4.0496,4.0505,4.0512,4.0515,4.0479,4.0474,4.047,4.0463,4.0514,4.0514,4.0553,4.0553,4.0553]}]]